Flag for Norway Weather past 2 weeks in Hammerfest, Norway

36 °F

Sprinkles. Light fog.

Feels Like: 27 °F
Forecast: 36 / 41 °F
Wind: 13 mph from Northwest

Location: Hammerfest

Current Time: Oct 4, 2015 at 10:06:30 PM

Latest Report: Oct 4, 2015 at 8:50 PM

Visibility: 4 mi

Pressure: 29.77 "Hg

Humidity: 87%

Dew point: 32 °F

Location of HammerfestLocation

Historic Weather in Hammerfest — Graph


Hammerfest temperature yesterday

Maximum temperature yesterday: 37 °F (at 12:50 AM)
Minimum temperature yesterday: 32 °F (at 2:50 PM)
Average temperature yesterday: 36 °F

Past Weeks' High & Low Weather Summary

High55 °F (Sep 22, 11:50 AM)100% (Sep 20, 4:50 AM)30.54 "Hg (Sep 20, 4:50 AM)
Low32 °F (Oct 3, 2:50 PM)60% (Oct 2, 11:50 PM)29.15 "Hg (Oct 2, 10:50 AM)
Average45 °F86%29.77 "Hg
* Reported Sep 19 8:50 PM — Oct 4 8:50 PM, Hammerfest, Weather by CustomWeather, © 2015

Note: Actual official high and low records may vary slightly from our data, if they occured in-between our weather recording intervals... More about our weather records


Hammerfest weather history for previous 24 hours

Time TempWeatherWind HumidityBarometerVisibility
8:50 PM
Sun, Oct 4
36 °FSprinkles. Light fog.13 mph87%29.77 "Hg4 mi
7:50 PM37 °FScattered showers. Partly cloudy.12 mph81%29.71 "HgN/A
6:50 PM37 °FScattered showers. Partly cloudy.7 mph87%29.71 "HgN/A
5:50 PM36 °FScattered showers. Broken clouds.5 mph93%29.68 "HgN/A
4:50 PM36 °FSnow flurries. Broken clouds.6 mph87%29.68 "HgN/A
3:50 PM37 °FScattered showers. Scattered clouds.6 mph81%29.62 "HgN/A
2:50 PM39 °FChilly.5 mph70%29.62 "HgN/A
1:50 PM37 °FSprinkles. Broken clouds.6 mph81%29.59 "HgN/A
12:50 PM39 °FScattered showers. Scattered clouds.1 mph75%29.59 "HgN/A
11:50 AM37 °FScattered showers. Passing clouds.2 mph75%29.56 "HgN/A
10:50 AM37 °FPassing clouds.1 mph75%29.56 "HgN/A
9:50 AM36 °FPassing clouds.1 mph87%29.56 "HgN/A
8:50 AM32 °FPassing clouds.3 mph93%29.56 "HgN/A
7:50 AM34 °FPassing clouds.1 mph93%29.56 "HgN/A
6:50 AM32 °FLight snow. Partly cloudy.3 mph100%29.56 "HgN/A
5:50 AM34 °FSnow flurries. Mostly cloudy.2 mph93%29.59 "HgN/A
4:50 AM34 °FLight rain. Mostly cloudy.1 mph93%29.59 "Hg5 mi
3:50 AM34 °FPassing clouds.5 mph93%29.59 "HgN/A
2:50 AM32 °FIce fog.2 mph100%29.62 "Hg5 mi
1:50 AM32 °FLight rain. Low clouds.No wind100%29.62 "HgN/A
12:50 AM36 °FLight rain. Mostly cloudy.6 mph87%29.62 "HgN/A
10:50 PM
Sat, Oct 3
36 °FPartly cloudy.6 mph87%29.65 "HgN/A
Weather by CustomWeather, © 2015

See weather overviewHow to use our weather pages